Tracking 35275 objects as of 9-Sep-2026
HD Live streaming from Space Station
objects crossing your sky now

STARLINK-30258

Track STARLINK-30258 now!
10-day predictions
STARLINK-30258 is classified as:


NORAD ID: 57608
Int'l Code: 2023-119G
Launch date: August 11, 2023
Source: United States (US)
Launch site: AIR FORCE EASTERN TEST RANGE (AFETR)
Your satellite tracking list
Your tracking list is empty




NASA's NSSDC Master Catalog

Two Line Element Set (TLE):
1 57608U 23119G   26251.39304145  .00001561  00000-0  66244-4 0  9996
2 57608  43.0027 130.1780 0001486 272.9320  87.1361 15.27580570171025
Source of the keplerian elements: AFSPC